Terug naar catalogus

NSS 513

INTELSAT 513

ActiefCommunicatieGEO
NORAD 19121·PAYLOAD·🇳🇱 Netherlands

Gelanceerd May 17, 1988 vanaf Guiana Space Centre

Loading…

TLE

VersSource: Space-Track

Epoch: Sep 14, 2026, 04:44 UTC

1 19121U 88040A   26257.19779789 -.00000138  00000-0  00000-0 0  9996
2 19121  14.6401 348.1585 0011235 127.5180 245.1360  0.98572390115429

Volg NSS 513 in realtime met AllMySat

Download on the App Store